Lid_Strength_Index
11 11 10 10 8 2 2 3 2 2 3 4 4 6 6 7 7 7 6 6 6 6 6 6 5 5 5 5 5 5 6 6
11 11 11 9 9 5 3 3 3 2 2 3 4 5 6 6 7 7 6 6 6 6 6 6 5 5 5 5 5 5 6 6
9 10 10 10 10 7 3 3 2 2 2 3 4 5 6 6 7 6 6 6 6 6 6 6 5 5 5 5 5 5 6 6
9 9 10 12 11 7 3 3 2 2 2 3 4 5 6 6 7 6 6 6 6 6 6 5 5 5 5 5 5 4 5 5
9 9 9 10 12 8 3 3 2 2 2 4 5 5 6 6 7 6 6 6 6 6 5 5 5 5 5 5 5 5 5 5
10 9 9 9 9 10 4 3 2 3 3 4 5 5 5 6 7 7 6 6 6 6 6 5 5 4 5 5 5 5 5 5
9 8 9 9 9 7 6 3 2 3 3 3 5 6 5 7 7 7 6 6 6 6 6 6 5 7 8 5 5 5 5 5
10 8 8 6 8 7 6 3 3 3 4 4 5 6 6 6 7 7 6 6 6 6 6 6 5 8 8 8 5 5 4 5
12 10 6 6 6 6 5 3 3 3 4 5 5 6 7 6 7 7 6 6 6 6 6 6 5 8 8 9 5 5 4 5
12 10 8 7 6 6 6 5 4 4 5 6 5 6 7 7 7 7 7 6 6 6 6 6 6 9 9 7 5 6 6 6
12 11 11 10 8 7 7 6 5 5 5 6 6 6 7 7 7 6 6 6 6 7 6 7 6 9 8 6 5 6 7 8
12 12 12 11 9 8 7 7 7 6 6 7 6 6 6 6 6 7 7 7 7 7 7 7 7 8 8 7 5 6 6 7
12 12 12 12 11 11 11 11 9 9 9 9 8 7 6 7 7 7 7 7 8 8 10 11 9 10 9 8 7 7 6 7
13 13 13 13 13 13 12 12 11 10 11 11 11 10 7 7 7 8 7 8 8 8 9 11 12 9 9 9 8 8 8 8
12 13 14 13 13 13 13 12 11 11 12 12 11 11 10 8 7 7 8 8 9 9 9 9 10 9 9 8 8 10 10 11
13 13 14 13 13 13 13 13 12 12 13 13 11 10 10 10 9 8 7 7 8 8 8 10 10 9 8 7 8 8 10 11
14 14 14 14 14 14 13 13 12 13 14 14 13 11 11 11 12 11 10 10 9 9 8 10 8 9 9 9 9 10 10 12
15 16 16 15 14 15 14 14 13 13 13 14 14 13 12 12 11 12 12 10 10 10 10 9 9 10 9 10 10 10 10 12
17 17 18 17 16 15 15 14 14 13 13 13 13 13 13 13 13 12 11 12 13 11 10 10 10 10 10 10 10 12 12 11
18 19 19 18 17 16 16 15 15 14 14 13 13 13 13 13 14 13 13 12 13 13 12 12 10 10 10 10 10 11 11 11